Jackpot

Texas Poker Multi Jackpot System

Kini Telah hadir Jackpot SUPER ROYAL FLUSH

Kini Telah hadir Jackpot 2000 (khusus table VIP keatas).

Ikutilah global jackpot yang tersedia di system kami, dengan system jackpot terbaru dan pertama di indonesia, anda dapat membeli jackpot dengan harga 100 rupiah saja dan menangkan hadiahnya hingga puluhan juta rupiah.

Jackpot bukanlah suatu keharusan untuk dibeli, namun kami memberikan suatu fitur tambahan untuk member tercinta dari www.kasir88.net.

Terdapat tiga pilihan harga jackpot yang bisa anda beli yaitu :100,500,1000 dan 2000(khusus table VIP Keatas) rupiah.

Hadiah dari Multi jackpot system www.kasir88.net

  1. full house x 10 harga jackpot yang anda beli.
      (contoh:anda membeli 1000 maka:1000 X10 = 10.000)
  2. four of kind x 250 harga jackpot yang anda beli
      (contoh:anda membeli 1000 maka:1000 X250 = 250.000)
  3. Straight flush x 1200
      (contoh:anda membeli 1000 maka:1000 X1200 = 1.200.000)
  4. Royal flush x 10000 harga jackpot yang anda beli
      (contoh:anda membeli 1000 maka:1000 X10000 = 10.000.000)
  5. SUPER ROYAL FLUSH x 30000 harga jackpot yang anda beli
      (contoh:anda membeli 1000 maka:1000 X30000 = 30.000.000)

Kondisi kartu

  1. full house adalah kondisi kartu dimana kartu anda dan kartu tengah dengan total 7 kartu bisa mendapatkan nilai 5 kartu dengan kombinasi 1 tris(three of kind) dan 1 pair, contoh 3 kartu 10 dan 2 kartu 5
  2. Four of kind adalah kondisi kartu dimana kartu anda dan kartu tengah dengan total 7 kartu bisa mendapatkan nilai 5 kartu dengan kombinasi 4 kartu yang sama jumlah dan 1 kartu apapun juga contoh anda mendapatkan 4 buah kartu angka 3 dan 1 kartu apapun.
  3. Staright flush adalah kondisi kartu dimana kartu anda dan kartu tengah dengan total 7 kartu bisa mendapatkan nilai 5 kartu dengan kombinasi seri / staright dengan kembang yang sama contoh : urutan kartu dari angka 5, 6, 7, 8 , 9 10 dengan kembang yg sama misalnya as hati
  4. Royal flush adalah kondisi kartu dimana kartu anda dan kartu tengah dengan total 7 kartu bisa mendapatkan nilai 5 kartu dengan kombinasi seri / staright dengan kembang yang sama tetapi kartu tersebut haruslah dimulai dari 10. contoh 10, Queen, Jack, King dan aces dengan kembang yang sama
  5. Super Royal flush adalah kondisi kartu dimana Kedua kartu anda digabung dengan 3 kartu pertama meja haruslah royal flush. contoh kartu anda 10,Queen kembang sama dan 3 kartu pertama meja adalah Jack, King dan aces dengan kembang yang sama

Demikian adalah penjelasan dari Multi Jackpot www.kasir88.net terima kasih dan selamat bermain salam hoki dari kami

Texas Poker Jackpot Winner

TOP SUPER ROYAL FLUSH
No.TanggalNamaPriceWin
121/09 02:23MUKLIS4Super Royal flush6,000,000
220/09 23:47NGELAMUN23Super Royal flush30,000,000
320/09 20:17QUNZA15Super Royal flush15,000,000
420/09 17:54ALAN_AA99Super Royal flush6,000,000
520/09 13:44AMORE17Super Royal flush15,000,000
TOP ROYAL FLUSH
No.TanggalNamaPriceWin
121/09 04:14KUCELWDRoyal flush5,000,000
221/09 04:13ZD26IERM0TRoyal flush5,000,000
321/09 03:57JOKEN44Royal flush5,000,000
421/09 03:46ALLJP46Royal flush20,000,000
521/09 03:43BRENGOS28Royal flush2,000,000
TOP STRAIGHT FLUSH
No.TanggalNamaPriceWin
121/09 05:30IN1_D3Straight Flush240,000
221/09 05:28SAPRI_80SStraight Flush600,000
321/09 05:25PION86Straight Flush600,000
421/09 05:22POKER347Straight Flush240,000
521/09 05:21B340BCACStraight Flush1,200,000
LATEST JACKPOT
No.TanggalNamaPriceWin
121/09 05:30METUKFull House5,000
221/09 05:30TARAAAA21Full House2,000
321/09 05:30YV61A35ZZXFull House2,000
421/09 05:30PUTIH1305Full House2,000
521/09 05:30BE8C0AEEFull House1,000
621/09 05:30T4DBA17D1TFull House5,000
721/09 05:30ALDIMOONFull House5,000
821/09 05:30OPERATOR24Full House1,000
921/09 05:30TEGUH01Full House2,000
1021/09 05:30BOS_IDAN88Full House5,000
1121/09 05:30TOPWEDEDPFull House10,000
1221/09 05:30EKUPEFull House10,000
1321/09 05:30HOKI__14Full House5,000
1421/09 05:30SAHRUL9999Full House5,000
1521/09 05:30TEMPOYAAKFull House5,000
1621/09 05:30DWBTOCKY75Full House10,000
1721/09 05:30DAUSWINNERFull House10,000
1821/09 05:30BCA884514YFull House5,000
1921/09 05:30TUAHLANA11Full House20,000
2021/09 05:30IN1_D3Straight Flush240,000
2121/09 05:30JENGKOL55Full House5,000
2221/09 05:30SHYFA_16Full House2,000
2321/09 05:30OKTAVIANDYFull House500
2421/09 05:30XIAOCINGFull House20,000
2521/09 05:30CAMELFull House20,000
2621/09 05:30MATALAGAFull House20,000
2721/09 05:30DAZZAL9Full House5,000
2821/09 05:30KOCE77Full House5,000
2921/09 05:30A98UKROMIN558Full House2,000
3021/09 05:30RONIRONRONFull House2,000
3121/09 05:30DERICKJR99Full House10,000
3221/09 05:30QQTEUGETFull House2,000
3321/09 05:30XPANDAWAXFull House2,000
3421/09 05:30SUWARNOJIMFull House10,000
3521/09 05:30PAIJOE86Full House5,000
3621/09 05:30HOKIAKUWEFull House1,000
3721/09 05:30G4R3NG79Full House5,000
3821/09 05:29PEMAINCEWEFull House10,000
3921/09 05:29KOMODOACXFull House5,000
4021/09 05:29KAIT0KIDFull House1,000
4121/09 05:29RT00604Full House5,000
4221/09 05:29M4L4IKATFull House2,000
4321/09 05:29FL4SHB4CKFull House1,000
4421/09 05:29ACIS303Full House10,000
4521/09 05:29T44RKULFull House2,000
4621/09 05:29BAAGONG8Full House2,000
4721/09 05:29OLIEFull House2,000
4821/09 05:29DB88D464Full House5,000
4921/09 05:29TEBS8888Full House10,000
5021/09 05:29JOLNGAFull House5,000

Domino Multi Jackpot System

Ikutilah global jackpot yang tersedia di system kami, dengan system jackpot terbaru dan pertama di indonesia, anda dapat membeli jackpot dengan harga 100 rupiah saja dan menangkan hadiahnya hingga puluhan juta rupiah.

Jackpot bukanlah suatu keharusan untuk dibeli, namun kami memberikan suatu fitur tambahan untuk member tercinta dari www.kasir88.net.

Terdapat tiga pilihan harga jackpot yang bisa anda beli yaitu :100,500 dan 1000 rupiah.

Hadiah dari Multi jackpot system www.kasir88.net

  1. Murni Kecil x 50 harga jackpot yang anda beli.
      (contoh:anda membeli 1000 maka:1000 X 50 = 50.000)
  2. Murni Besar x 50 harga jackpot yang anda beli
      (contoh:anda membeli 1000 maka:1000 X 50 = 50.000)
  3. BALAK x 100 harga jackpot yang anda beli
      (contoh:anda membeli 1000 maka:1000 X 100 = 100.000)
  4. ENAM DEWA x 6666 harga jackpot yang anda beli
      (contoh:anda membeli 1000 maka:1000 X 6666 = 6.666.000)

Demikian adalah penjelasan dari Multi Jackpot www.kasir88.net terima kasih dan selamat bermain salam hoki dari kami

Domino Jackpot Winner

TOP ENAM DEWA
No.TanggalNamaPriceWin
121/09 04:34C163590murni enam666,600
221/09 02:50BACO9999murni enam3,333,000
321/09 02:37RAKSERmurni enam6,666,000
421/09 01:39ROBERTA79murni enam6,666,000
521/09 00:46C163590murni enam666,600
TOP BALAK
No.TanggalNamaPriceWin
121/09 05:25KIMALObalak50,000
221/09 05:24ANGGI710balak50,000
321/09 05:24GONDO9977balak100,000
421/09 05:16BAGUSDRAWbalak50,000
521/09 05:14KUCENGHOODbalak10,000
LATEST JACKPOT
No.TanggalNamaPriceWin
121/09 05:29KEY900lucky9950,000
221/09 05:26PUTRAALVESmurni kecil25,000
321/09 05:26NAY1206murni besar5,000
421/09 05:25D280176murni kecil5,000
521/09 05:25KIMALObalak50,000
621/09 05:24ANGGI710balak50,000
721/09 05:24OBC7001murni besar5,000
821/09 05:24ANTASIDAmurni kecil50,000
921/09 05:24GONDO9977balak100,000
1021/09 05:23FD842B93murni besar25,000
1121/09 05:23BOBY74murni kecil50,000
1221/09 05:22JOYO369murni besar50,000
1321/09 05:21BOLIANG2murni kecil5,000
1421/09 05:21SANDIEKAPRmurni besar50,000
1521/09 05:20INSIU15murni besar50,000
1621/09 05:18RIYANKY29murni besar5,000
1721/09 05:18C163590lucky992,500
1821/09 05:17VIENTO8murni besar50,000
1921/09 05:16BAMBONG04murni besar5,000
2021/09 05:16BAGUSDRAWbalak50,000
2121/09 05:15ZULSGPmurni kecil25,000
2221/09 05:15JANCOK_87murni besar5,000
2321/09 05:15YOFI88murni besar25,000
2421/09 05:14SQUAD_6666murni kecil50,000
2521/09 05:14IV4ND312murni kecil50,000
2621/09 05:14KUCENGHOODbalak10,000
2721/09 05:14RENO80murni besar50,000
2821/09 05:13BANDARDAUNmurni besar5,000
2921/09 05:12EXPRES99balak100,000
3021/09 05:12TONDO87murni kecil50,000
3121/09 05:11INSIU15balak100,000
3221/09 05:11GHOZAY20murni kecil5,000
3321/09 05:11ARI548murni kecil5,000
3421/09 05:10ROYENDRAAAmurni kecil50,000
3521/09 05:10DE_GEAbalak50,000
3621/09 05:08AB0B1M0balak10,000
3721/09 05:08REMILE123murni kecil5,000
3821/09 05:07PORKER9murni besar50,000
3921/09 05:06JABRIK29murni besar5,000
4021/09 05:06ZAKI2903murni besar50,000
4121/09 05:06MERTUA87murni besar5,000
4221/09 05:04HEBEL88murni kecil50,000
4321/09 05:03DELAHOYA27murni besar25,000
4421/09 05:03BHOIMANARQmurni besar25,000
4521/09 05:01ABII112lucky9925,000
4621/09 05:00BOPENGGGmurni besar25,000
4721/09 05:00YAI03murni kecil50,000
4821/09 04:59JENDRALFASmurni kecil25,000
4921/09 04:59CAROLBEEmurni kecil50,000
5021/09 04:58FF782FCFlucky9910,000

Ceme Multi Jackpot System

Jackpot dilihat dari gabungan kartu pemain dengan kartu bandar. Bandar harus membeli jackpot sebanyak jumlah player yang sedang duduk. Sebagai contoh bila terdapat 3 pemain duduk bermain, dan bandar memutuskan untuk membeli jackpot Rp 1.000, maka pada periode tersebut bandar akan membeli jackpot sebanyak 3xRp1.000 = Rp3.000.

Jackpot bukanlah suatu keharusan untuk dibeli, namun kami memberikan suatu fitur tambahan untuk member tercinta dari www.kasir88.net.

Terdapat tiga pilihan harga jackpot yang bisa anda beli yaitu :100,500 dan 1000 rupiah.

Hadiah dari Multi jackpot system www.kasir88.net

  1. Murni Kecil x 50 harga jackpot yang anda beli.
      (contoh:anda membeli 1000 maka:1000 X 50 = 50.000)
  2. Murni Besar x 50 harga jackpot yang anda beli
      (contoh:anda membeli 1000 maka:1000 X 50 = 50.000)
  3. BALAK x 200 harga jackpot yang anda beli
      (contoh:anda membeli 1000 maka:1000 X 200 = 200.000)
  4. ENAM DEWA x 6666 harga jackpot yang anda beli
      (contoh:anda membeli 1000 maka:1000 X 6666 = 6.666.000)

Demikian adalah penjelasan dari Multi Jackpot www.kasir88.net terima kasih dan selamat bermain salam hoki dari kami

Ceme Jackpot Winner

TOP ENAM DEWA
No.TanggalNamaPriceWin
121/09 05:22JAPRA979murni enam6,666,000
221/09 05:10BENO88murni enam3,333,000
321/09 05:09A68PD2001409murni enam6,666,000
421/09 05:06KATROOKmurni enam6,666,000
521/09 04:54DUMCDPHQAMmurni enam666,600
TOP BALAK
No.TanggalNamaPriceWin
121/09 05:29DAMBERObalak20,000
221/09 05:29SUKACEMEbalak100,000
321/09 05:27ARCHER50balak200,000
421/09 05:27QQJAJASAbalak200,000
521/09 05:27WANTO088balak200,000
LATEST JACKPOT
No.TanggalNamaPriceWin
121/09 05:30QILY15murni kecil50,000
221/09 05:30ZPG65V88CPmurni kecil50,000
321/09 05:29BERLIN22Smurni besar50,000
421/09 05:29OMCEMSmurni besar50,000
521/09 05:29DAMBERObalak20,000
621/09 05:29SUKACEMEbalak100,000
721/09 05:29DRAWOmurni kecil5,000
821/09 05:28AMROY88murni besar50,000
921/09 05:28SAPUTRO88murni besar50,000
1021/09 05:28KANJIN29murni besar50,000
1121/09 05:28MANIS1201murni kecil50,000
1221/09 05:28APAAJAmurni kecil50,000
1321/09 05:28MANIS1201murni kecil50,000
1421/09 05:28T118JEPETERU5murni kecil50,000
1521/09 05:28NAS123murni besar25,000
1621/09 05:28REQTUN1IFKmurni besar50,000
1721/09 05:28ADE2813murni besar50,000
1821/09 05:27MINHO06murni kecil50,000
1921/09 05:27WGHKLGN9murni kecil50,000
2021/09 05:27GASTERUS01murni kecil25,000
2121/09 05:27WGHKLGN9murni kecil50,000
2221/09 05:27N6P4VHTUCQmurni besar25,000
2321/09 05:27ARCHER50balak200,000
2421/09 05:27QQJAJASAbalak200,000
2521/09 05:27WANTO088balak200,000
2621/09 05:27A8011679balak100,000
2721/09 05:26IDNGNU123balak100,000
2821/09 05:26ARCHER50murni kecil50,000
2921/09 05:25NINJA2015murni besar5,000
3021/09 05:24LEMKAmurni kecil50,000
3121/09 05:24GATOR1murni kecil50,000
3221/09 05:24BIGRUSHmurni kecil25,000
3321/09 05:24HOKKIDOONGmurni besar50,000
3421/09 05:24BOYY20murni besar5,000
3521/09 05:24RGN9CSZLH9murni kecil50,000
3621/09 05:24GARINGANmurni kecil25,000
3721/09 05:23AQUA92murni kecil50,000
3821/09 05:23ARSAPATI19murni kecil50,000
3921/09 05:23RANGGA107murni kecil50,000
4021/09 05:23DARKAM88murni besar50,000
4121/09 05:22JAPRA979murni enam6,666,000
4221/09 05:22JURAGAN31murni kecil5,000
4321/09 05:22A53MBLUE78402murni kecil50,000
4421/09 05:22NCEZZmurni kecil50,000
4521/09 05:22DALBO14murni kecil25,000
4621/09 05:22SIJAGO33murni kecil50,000
4721/09 05:22JIRO08murni kecil5,000
4821/09 05:21MALUMAUO8murni kecil25,000
4921/09 05:21PD4DPERISbalak200,000
5021/09 05:21BACIN89murni besar50,000